Location: Newark
(40.3500°N, 15.2333°E)
Time: 00:56:54
(UTC+00:00)

NOAA 19 - Pass Details

Date: 22 February 2020
Orbit: 842 x 860 km, 99.2° (Epoch: 01 April)

Event Time Altitude Azimuth Distance (km) Brightness Sun altitude
Rises 03:40:57 0° 31° (NNE) 3,420 8.9 -24.1°
Reaches altitude 10° 03:44:07 10° 50° (NE) 2,482 8.4 -23.5°
Maximum altitude 03:47:50 18° 93° (E) 1,959 8.0 -22.8°
Drops below altitude 10° 03:51:32 10° 135° (SE) 2,479 8.1 -22.1°
Sets 03:54:39 0° 154° (SSE) 3,413 8.6 -21.5°
